Wetterdaten: aktuell Dienstag, 19.06.2018 10:08
Datum Zeit Temp. A. Feuchte A. Luftdruck Regen Wind Richtung Richtung Taupunkt Windchill
19.06.2018 10:08 22,9 C 53 % 1021,1 hPa 0,0 l/m 3,0 km/h (1 Bft) O-NO67.5 70 12,8 C 22,9 C
19.06.2018 10:06 22,7 C 54 % 1021,1 hPa 0,0 l/m 4,4 km/h (1 Bft) O-NO22.5 65 12,9 C 22,7 C
19.06.2018 10:04 22,7 C 54 % 1021,1 hPa 0,0 l/m 4,4 km/h (1 Bft) O-NO22.5 65 12,9 C 22,7 C
19.06.2018 10:02 22,7 C 54 % 1021,1 hPa 0,0 l/m 5,6 km/h (1 Bft) S-SO 165 12,9 C 22,7 C
19.06.2018 10:00 22,6 C 55 % 1021,1 hPa 0,0 l/m 1,6 km/h (1 Bft) S-SO22.5 150 13,1 C 22,6 C
19.06.2018 09:58 22,4 C 55 % 1021,1 hPa 0,0 l/m 1,6 km/h (1 Bft) S-SO22.5 150 12,9 C 22,4 C
19.06.2018 09:56 22,4 C 55 % 1021,1 hPa 0,0 l/m 7,7 km/h (2 Bft) S-SO45 150 12,9 C 22,0 C
19.06.2018 09:54 22,3 C 56 % 1021,1 hPa 0,0 l/m 4,2 km/h (1 Bft) SO67.5 140 13,1 C 22,3 C
19.06.2018 09:52 22,2 C 56 % 1022,1 hPa 0,0 l/m 1,8 km/h (1 Bft) S45 170 13,0 C 22,2 C
19.06.2018 09:50 22,2 C 56 % 1022,1 hPa 0,0 l/m 1,8 km/h (1 Bft) S45 170 13,0 C 22,2 C
19.06.2018 09:48 22,2 C 55 % 1022,1 hPa 0,0 l/m 0,8 km/h (0 Bft) SO22.5 135 12,7 C 22,2 C
19.06.2018 09:46 22,2 C 55 % 1022,1 hPa 0,0 l/m 0,4 km/h (0 Bft) SO22.5 130 12,7 C 22,2 C
19.06.2018 09:44 22,2 C 55 % 1022,1 hPa 0,0 l/m 4,9 km/h (1 Bft) N67.5 5 12,7 C 22,2 C
19.06.2018 09:42 22,2 C 56 % 1021,1 hPa 0,0 l/m 4,9 km/h (1 Bft) N67.5 5 13,0 C 22,2 C
19.06.2018 09:40 22,2 C 57 % 1021,1 hPa 0,0 l/m 11,6 km/h (2 Bft) N-NW45 340 13,3 C 20,7 C
19.06.2018 09:38 22,2 C 57 % 1021,1 hPa 0,0 l/m 4,3 km/h (1 Bft) NO67.5 35 13,3 C 22,2 C
19.06.2018 09:36 22,2 C 57 % 1021,1 hPa 0,0 l/m 4,3 km/h (1 Bft) NO67.5 35 13,3 C 22,2 C
19.06.2018 09:34 22,0 C 57 % 1021,1 hPa 0,0 l/m 0,2 km/h (0 Bft) N-NO67.5 15 13,1 C 22,0 C
19.06.2018 09:32 22,0 C 58 % 1021,1 hPa 0,0 l/m 5,9 km/h (2 Bft) N-NO67.5 15 13,3 C 22,0 C
19.06.2018 09:30 22,0 C 58 % 1021,1 hPa 0,0 l/m 1,8 km/h (1 Bft) S-SO67.5 155 13,3 C 22,0 C
19.06.2018 09:28 21,9 C 59 % 1021,1 hPa 0,0 l/m 1,8 km/h (1 Bft) S-SO67.5 155 13,5 C 21,9 C
19.06.2018 09:26 21,9 C 59 % 1021,1 hPa 0,0 l/m 0,1 km/h (0 Bft) N 10 13,5 C 21,9 C
19.06.2018 09:24 21,9 C 59 % 1021,1 hPa 0,0 l/m 2,2 km/h (1 Bft) N-NO45 30 13,5 C 21,9 C
19.06.2018 09:22 21,8 C 60 % 1021,1 hPa 0,0 l/m 2,2 km/h (1 Bft) N-NO45 30 13,7 C 21,8 C
19.06.2018 09:20 21,7 C 60 % 1021,1 hPa 0,0 l/m 7,9 km/h (2 Bft) S-SO67.5 150 13,6 C 21,2 C
19.06.2018 09:18 21,7 C 60 % 1021,1 hPa 0,0 l/m 0,3 km/h (0 Bft) SO22.5 135 13,6 C 21,7 C
19.06.2018 09:16 21,7 C 61 % 1021,1 hPa 0,0 l/m 3,0 km/h (1 Bft) O67.5 95 13,8 C 21,7 C
19.06.2018 09:14 21,6 C 61 % 1021,1 hPa 0,0 l/m 3,0 km/h (1 Bft) O67.5 95 13,7 C 21,6 C
19.06.2018 09:12 21,6 C 61 % 1021,1 hPa 0,0 l/m 3,4 km/h (1 Bft) O67.5 100 13,7 C 21,6 C
19.06.2018 09:10 21,4 C 62 % 1021,1 hPa 0,0 l/m 0,2 km/h (0 Bft) O67.5 80 13,8 C 21,4 C
19.06.2018 09:08 21,3 C 62 % 1021,1 hPa 0,0 l/m 2,0 km/h (1 Bft) SO22.5 140 13,7 C 21,3 C
19.06.2018 09:06 21,3 C 62 % 1021,1 hPa 0,0 l/m 2,0 km/h (1 Bft) SO22.5 140 13,7 C 21,3 C
19.06.2018 09:04 21,1 C 63 % 1021,1 hPa 0,0 l/m 6,0 km/h (2 Bft) S-SW45 200 13,8 C 21,1 C
19.06.2018 09:02 21,0 C 64 % 1021,1 hPa 0,0 l/m 6,0 km/h (2 Bft) S-SW45 200 13,9 C 21,0 C
19.06.2018 09:00 21,0 C 64 % 1021,1 hPa 0,0 l/m 6,0 km/h (2 Bft) S-SW45 200 13,9 C 21,0 C
19.06.2018 08:58 20,8 C 64 % 1021,1 hPa 0,0 l/m 3,1 km/h (1 Bft) SW 230 13,7 C 20,8 C
19.06.2018 08:56 20,6 C 64 % 1021,2 hPa 0,0 l/m 5,7 km/h (1 Bft) W-NW 295 13,5 C 20,6 C
19.06.2018 08:54 20,6 C 64 % 1021,2 hPa 0,0 l/m 1,9 km/h (1 Bft) NW22.5 325 13,5 C 20,6 C
19.06.2018 08:52 20,6 C 64 % 1021,2 hPa 0,0 l/m 1,9 km/h (1 Bft) NW22.5 325 13,5 C 20,6 C
19.06.2018 08:50 20,5 C 65 % 1021,2 hPa 0,0 l/m 6,9 km/h (2 Bft) N22.5 355 13,7 C 20,3 C
19.06.2018 08:48 20,5 C 65 % 1021,2 hPa 0,0 l/m 1,1 km/h (1 Bft) N22.5 360 13,7 C 20,5 C
_ Min-Zeit 05:54 10:08 00:00 - 00:06 - - 00:24 05:54
Minimum _ 16,9 C 53 % 1020,1 hPa - 0,0 km/h (0 Bft) - - 11,4 C 16,9 C
_ Max-Zeit 10:08 06:48 09:44 00:00 09:40 - - 07:46 10:08
Maximum _ 22,9 C 82 % 1022,1 hPa 0,0 l/m 11,6 km/h
N-NW (2 Bft)
- - 14,9 C 22,9 C
Durchschnitt _ 19,0 C 69 % 1020,6 hPa #0,0 l/m 1,0 km/h (0 Bft) S-SO - 13,1 C 19,0 C